GFSNW_sfc_wetblb_000.txt.gz
Wetbulb
54.22 54.98 55.00 55.49 55.45 54.50 50.82 49.49 47.26 54.73 53.35 49.17 46.86 44.20 44.65 45.35 47.08 49.13 47.64 47.45 46.02 44.94 44.41 43.92 43.90 43.78 45.63 49.10 48.76 45.90 47.44 46.18 42.00 43.52 44.49 43.45 42.91 42.15 42.12 39.35 35.54 37.33 35.63 38.18
54.36 54.03 54.82 55.58 55.52 53.54 49.93 46.91 47.54 53.80 52.33 45.24 44.31 44.17 43.78 44.79 46.44 46.40 46.85 45.84 46.90 46.98 45.54 43.18 45.21 45.68 49.10 48.99 47.77 46.78 47.63 44.08 39.53 39.90 42.61 42.85 42.86 42.29 42.25 41.98 41.36 39.04 35.95 38.87
54.95 54.77 54.79 55.15 55.25 54.54 49.98 46.87 43.79 48.66 48.16 44.62 44.97 43.55 41.95 42.26 45.01 45.47 47.18 46.44 47.00 45.77 44.81 45.55 44.57 44.91 46.59 48.16 48.01 47.45 48.65 44.46 41.98 38.13 39.43 43.66 40.56 40.79 41.67 42.66 38.86 38.82 39.50 41.47
55.66 55.05 54.85 55.05 54.66 53.93 50.66 46.41 42.27 43.20 42.61 43.74 43.27 43.28 42.33 41.13 41.45 44.58 46.17 45.34 45.28 44.46 42.55 43.29 43.12 44.52 45.91 46.74 46.55 47.53 46.95 41.68 43.37 43.90 44.51 44.13 42.87 42.68 43.08 40.88 41.99 38.68 41.05 41.41
55.23 54.97 54.53 54.74 54.16 52.34 49.69 45.57 45.05 43.74 42.45 41.43 42.95 40.67 40.92 41.79 41.22 43.36 42.60 43.89 44.72 45.73 43.35 44.02 42.30 44.30 44.95 44.02 45.69 45.19 43.95 40.88 41.13 39.02 41.77 41.29 39.58 42.05 42.72 42.75 42.89 42.62 42.79 42.35
56.17 54.81 54.35 54.37 54.04 51.78 48.24 48.24 47.66 46.07 39.97 40.99 41.95 42.72 41.62 41.31 42.22 42.17 44.34 44.80 45.15 43.93 44.43 46.61 47.65 48.21 47.97 46.90 45.13 43.70 42.66 41.36 38.22 34.51 38.53 38.72 35.29 39.80 40.78 41.83 43.67 43.31 39.59 44.62
55.91 55.68 54.63 54.57 54.09 51.69 49.96 49.25 47.98 45.09 39.92 40.72 41.26 40.89 41.20 40.90 40.94 40.54 40.53 44.56 43.62 43.29 45.96 44.83 44.16 43.06 42.78 43.40 44.18 47.00 42.30 40.61 40.08 35.26 37.20 30.20 40.14 44.27 43.73 42.01 43.72 45.27 44.71 45.52
55.72 55.52 55.58 54.75 54.35 53.23 49.99 49.94 46.72 43.94 39.77 40.24 38.88 39.29 39.97 40.13 40.92 41.06 40.94 41.75 44.00 45.46 42.82 39.26 36.82 38.43 38.25 39.09 40.16 40.45 43.84 41.13 36.29 33.73 34.39 38.25 40.28 43.44 41.66 39.93 41.87 45.34 44.06 44.71
55.06 55.09 55.14 55.30 54.81 53.84 51.76 49.73 49.45 45.57 40.90 41.41 41.34 39.65 40.38 39.54 38.90 38.39 38.58 41.57 43.59 43.54 40.66 37.25 31.73 33.73 34.86 36.10 36.22 41.43 40.72 42.24 38.06 35.36 31.16 30.07 39.55 44.19 45.04 44.71 37.21 46.10 45.68 44.20
54.65 54.68 54.76 54.82 54.74 53.93 52.43 50.65 51.13 48.17 41.63 44.30 42.85 40.18 40.58 39.57 37.31 36.52 36.22 37.89 38.77 41.28 36.59 33.35 32.06 32.15 34.78 33.60 33.65 35.20 36.01 36.29 34.63 34.78 33.17 37.59 43.84 45.55 44.98 35.14 39.85 45.35 44.14 42.52
53.78 54.13 54.31 54.49 54.52 54.15 52.73 51.09 51.47 47.80 43.85 44.45 44.55 44.17 39.34 38.54 39.34 39.11 37.10 37.96 37.86 36.56 33.78 33.59 34.15 32.08 34.22 34.23 36.31 36.16 36.42 34.57 34.24 35.60 32.45 30.83 45.87 44.07 39.26 44.44 46.36 44.67 43.75 43.71
53.16 53.53 53.90 54.14 54.34 54.23 53.34 50.13 51.55 51.05 45.64 45.74 48.33 48.67 48.67 45.45 44.42 41.95 39.41 41.90 39.93 39.19 36.92 36.24 35.91 32.39 33.38 34.70 33.30 39.46 34.80 41.12 40.10 39.65 39.20 46.23 46.16 45.31 46.31 45.10 43.30 43.42 43.46 44.01
52.17 52.90 53.33 53.84 54.20 54.67 53.47 50.83 50.05 48.64 45.25 45.80 45.81 46.60 50.40 50.95 49.77 50.27 41.61 42.19 43.22 40.87 44.71 40.21 38.84 35.19 38.03 32.99 35.55 39.47 41.28 42.92 37.60 40.62 44.17 44.68 46.17 44.02 45.27 44.04 43.76 43.68 43.20 43.01
51.57 51.92 52.77 53.34 53.62 54.07 54.01 50.67 50.92 49.97 46.20 41.62 45.40 49.40 48.31 51.50 50.00 47.57 47.94 46.09 44.42 45.71 44.28 41.19 38.72 36.01 41.16 37.01 40.56 38.99 42.48 41.67 41.73 42.08 44.57 45.69 46.26 45.77 44.72 41.81 41.12 38.90 38.36 37.95
50.35 51.54 52.09 52.49 52.74 53.08 53.53 52.44 51.71 52.65 47.74 41.89 43.26 48.05 48.19 47.83 49.92 48.06 48.07 46.90 45.53 42.69 40.24 38.83 36.84 40.08 39.28 39.77 38.70 36.59 41.22 41.47 40.02 39.00 45.04 43.96 44.74 46.35 41.04 39.19 37.49 37.93 37.37 36.03
49.95 50.74 51.38 52.03 52.38 52.61 50.71 45.93 51.32 52.01 51.31 44.77 37.16 45.97 43.72 45.16 46.48 47.09 46.46 46.57 44.90 43.41 41.00 39.55 40.75 42.65 39.45 35.31 34.56 41.03 43.79 44.93 45.63 43.11 45.93 45.07 39.25 38.81 38.48 37.97 36.41 35.95 35.59 35.25
49.93 50.47 51.01 51.77 52.06 51.14 47.06 45.12 47.27 49.34 51.67 43.69 36.65 38.79 42.62 42.92 43.84 44.42 44.63 44.95 43.92 42.94 41.24 39.26 39.61 39.30 40.87 37.27 34.24 41.20 44.19 45.33 45.13 45.31 41.95 37.77 36.06 36.72 35.11 34.65 34.86 35.78 33.53 31.98
50.51 51.32 51.78 51.84 51.48 48.60 45.81 45.65 47.18 49.29 45.90 43.34 33.55 35.00 37.88 42.89 40.12 40.49 44.02 42.53 42.63 41.77 41.01 41.29 39.34 40.09 39.05 33.52 40.09 42.64 43.91 44.05 43.73 41.91 39.78 38.47 37.08 35.21 34.21 33.65 31.52 29.14 28.72 28.63
51.01 50.77 48.58 47.04 44.17 42.99 43.08 45.81 46.10 46.25 44.55 36.90 34.82 33.80 34.42 41.26 40.03 40.60 40.89 42.02 36.59 41.87 37.59 38.24 38.66 36.64 32.48 37.91 40.14 40.82 41.83 40.44 40.06 34.94 35.09 34.25 33.08 31.64 30.69 29.45 27.80 26.78 26.68 26.94
49.89 47.71 44.05 38.03 41.37 44.85 44.10 42.17 40.01 37.92 38.63 37.22 33.93 38.06 35.00 38.78 38.67 37.52 37.68 37.24 33.93 31.63 35.00 37.73 33.43 33.76 39.60 41.35 42.01 42.21 42.21 39.90 34.95 31.17 29.27 30.03 30.28 30.55 27.45 26.40 27.57 27.26 26.89 26.41
44.68 41.39 38.01 41.35 43.67 41.75 38.74 34.46 34.63 35.14 32.99 35.23 34.94 35.67 34.68 38.15 35.39 35.69 38.00 33.22 33.33 29.21 31.35 31.83 30.27 30.35 35.98 34.49 33.45 34.33 36.68 37.02 35.81 34.12 33.42 32.59 33.54 28.68 26.30 26.60 26.61 26.39 26.06 25.97
44.33 41.67 41.35 40.68 37.56 34.51 32.72 31.54 30.67 30.56 31.10 32.40 32.81 33.60 36.09 36.36 38.51 36.07 33.48 32.33 31.15 26.85 31.43 28.37 25.69 31.94 31.50 31.19 31.17 32.30 35.10 35.05 30.58 29.33 28.02 28.34 28.10 28.14 27.25 26.52 26.03 26.23 26.57 26.76
42.39 38.00 33.86 34.53 33.05 28.64 28.62 26.03 27.19 26.85 30.12 28.88 31.87 30.91 34.73 34.64 36.24 34.48 32.89 27.99 27.62 31.44 26.26 25.07 29.43 32.70 31.50 30.25 30.73 30.51 31.67 28.89 27.60 27.74 28.31 28.06 27.14 26.64 26.39 26.14 26.72 26.36 25.70 26.12
36.70 33.89 30.70 29.48 28.28 30.01 31.30 30.02 32.00 31.44 28.65 30.10 33.35 31.85 31.68 33.42 31.55 32.57 28.38 30.49 29.23 23.98 21.28 22.88 30.45 31.63 30.85 29.90 30.71 30.05 29.99 28.91 27.90 27.77 27.60 26.77 26.27 26.06 25.92 26.09 26.41 25.28 24.36 25.05
34.55 33.55 29.27 30.19 31.86 29.12 26.03 26.09 29.17 29.25 31.81 32.62 30.91 31.30 31.86 29.66 29.77 30.08 29.07 24.26 21.83 23.48 23.47 28.40 31.95 30.42 28.81 28.89 29.44 30.42 30.24 28.57 27.21 27.52 27.33 27.03 26.08 25.29 25.60 26.01 25.42 24.78 24.00 23.58
34.22 33.20 31.87 28.41 27.97 27.62 25.12 27.28 29.01 31.18 32.46 32.40 32.91 29.49 27.51 27.12 27.54 26.00 23.51 21.81 20.10 25.88 28.27 32.39 28.92 27.44 28.43 28.77 29.54 30.38 30.77 28.81 27.55 27.34 26.68 26.10 25.15 25.16 25.34 24.57 23.90 23.62 22.89 21.86
33.01 31.71 35.17 32.05 29.82 32.73 30.87 30.22 30.84 33.82 32.58 30.35 30.22 25.31 25.27 27.77 24.52 22.60 24.54 22.33 27.11 30.27 31.52 29.83 27.11 26.82 28.44 29.29 29.57 29.32 28.61 27.23 26.55 25.56 24.81 25.29 25.10 23.90 22.22 21.18 23.16 22.53 22.28 22.24

GFSNW_sfc_wetblb_003.txt.gz
Wetbulb
54.40 54.19 54.54 55.20 55.71 54.99 53.72 53.99 49.47 58.04 57.63 51.68 52.11 47.36 48.59 47.32 48.52 50.53 48.57 49.14 47.96 46.68 46.53 45.53 45.15 44.63 47.00 50.01 50.31 46.72 48.66 47.60 42.56 44.34 45.35 45.88 45.74 44.69 44.47 40.77 38.66 40.43 38.01 39.03
54.64 54.07 54.68 55.05 55.54 54.78 52.34 51.15 51.07 58.15 57.06 47.05 46.40 47.72 46.25 47.74 48.10 47.82 48.22 46.93 48.80 49.29 46.40 43.86 46.45 47.06 49.46 49.96 49.39 47.64 49.16 45.57 40.73 40.73 43.61 45.28 44.43 45.34 45.26 44.98 44.45 39.60 36.55 39.61
55.22 54.71 54.75 54.90 55.45 54.88 52.77 50.73 47.95 51.63 53.65 51.31 49.39 47.28 45.56 44.47 47.46 47.52 48.97 47.67 49.50 48.18 45.80 47.83 45.31 45.85 47.21 49.43 49.48 47.89 49.66 45.48 42.82 38.68 40.28 44.16 41.79 43.60 44.75 43.90 39.78 39.86 40.43 42.41
55.37 54.73 54.61 54.67 54.81 53.95 52.30 50.30 44.97 46.41 46.21 47.23 47.19 47.63 46.06 44.27 43.68 47.88 49.14 47.30 47.61 46.62 44.14 45.08 44.34 46.19 46.78 47.95 47.04 48.49 48.72 42.45 44.11 44.28 44.21 43.55 42.77 42.33 42.97 41.62 42.14 38.66 41.11 41.48
56.00 54.69 54.32 54.58 54.39 53.16 52.62 48.59 47.07 48.71 46.92 45.99 46.51 44.49 44.91 44.09 43.91 45.02 44.94 45.82 46.88 47.84 45.39 45.90 44.10 46.23 46.40 45.37 47.03 46.60 46.53 41.65 42.35 39.61 41.85 41.32 38.91 40.82 41.29 42.03 42.57 42.54 43.08 42.58
56.05 55.11 54.35 54.21 54.03 52.41 51.53 51.62 50.77 49.52 42.58 44.80 44.89 44.53 44.17 43.95 44.97 44.77 46.77 47.45 47.07 46.16 46.23 48.49 49.21 49.69 49.00 48.31 45.88 44.79 43.77 41.80 39.21 35.10 40.30 39.41 35.74 40.26 41.05 41.88 43.56 43.48 40.65 45.79
55.82 55.69 54.80 54.61 53.76 52.44 53.24 51.65 51.24 48.30 42.21 44.85 44.44 44.20 44.90 43.72 44.39 43.05 44.55 47.00 45.40 45.30 47.65 46.75 46.02 45.23 44.74 44.86 44.95 46.78 42.46 41.08 39.89 35.43 37.77 30.13 41.96 46.03 45.25 43.61 44.92 46.43 46.22 47.03
55.74 55.64 55.62 54.66 54.20 52.97 52.16 53.45 50.62 48.14 43.52 45.24 43.00 42.77 43.40 43.99 43.94 43.78 43.93 44.00 45.03 47.31 44.94 41.79 39.83 40.77 40.26 40.97 42.37 42.23 43.59 41.45 37.53 34.52 35.66 40.03 42.69 45.33 44.20 42.31 42.27 47.23 46.52 47.43
55.04 55.16 55.27 55.14 54.64 53.51 53.82 51.66 51.77 47.42 46.72 44.57 44.61 43.29 43.99 44.24 42.13 39.68 40.10 41.71 44.57 45.09 43.37 40.95 37.24 39.24 38.69 39.32 38.75 43.33 42.81 42.58 39.28 38.22 32.61 32.03 42.16 45.62 46.64 46.19 37.89 47.92 47.68 46.87
54.55 54.70 54.86 54.92 54.56 53.56 54.84 53.54 53.66 50.29 46.20 46.89 45.31 45.20 44.89 43.88 41.75 39.08 37.78 39.99 39.51 43.05 39.18 36.56 34.79 36.03 37.26 36.95 36.45 37.73 38.27 38.48 35.92 36.39 35.19 39.19 46.02 47.79 47.35 36.39 40.62 47.01 47.91 47.67
53.25 53.75 54.29 54.57 54.48 53.63 53.80 53.12 53.44 50.19 47.78 48.46 46.32 45.93 43.20 39.29 40.12 43.22 40.08 39.29 40.89 40.08 38.97 39.25 36.07 36.91 38.74 36.72 40.28 38.61 38.31 37.20 36.50 37.60 34.76 32.24 48.10 46.73 40.57 46.51 48.47 48.01 46.50 45.58
52.74 53.13 53.70 54.19 54.42 53.84 53.71 50.71 51.96 51.46 47.30 48.95 50.23 50.65 49.94 46.09 46.29 43.70 39.40 41.56 42.35 43.64 39.84 37.20 37.21 33.71 34.12 35.51 32.35 42.88 36.45 42.49 40.79 40.22 40.42 47.68 49.78 48.04 50.12 49.66 48.02 47.78 46.52 45.81
51.46 52.28 52.91 53.52 54.11 54.60 53.75 51.06 50.28 49.04 45.55 46.26 46.30 48.29 52.67 53.64 50.96 50.65 43.14 44.54 46.46 44.55 47.70 42.16 39.69 36.42 38.59 35.91 37.38 40.09 43.74 46.31 42.25 42.13 45.28 47.03 48.90 50.40 50.16 48.73 47.04 46.69 44.66 44.64
50.73 51.55 52.49 52.89 53.35 54.06 53.38 50.73 51.57 50.53 47.17 43.14 47.31 51.54 49.19 52.06 52.41 51.78 50.33 47.50 45.84 46.17 45.89 42.22 39.69 37.17 42.53 39.21 41.52 40.16 43.44 44.56 42.35 42.45 45.68 47.67 48.87 48.37 45.25 44.05 42.59 41.47 40.92 40.71
49.76 50.88 51.66 51.92 52.48 53.02 53.96 52.61 51.99 52.91 48.58 42.73 45.62 49.75 51.52 50.93 51.79 50.64 50.39 48.46 46.38 43.30 40.46 39.62 37.71 41.24 40.16 40.55 39.90 38.70 43.86 42.26 40.92 40.16 46.00 44.86 44.98 46.21 46.06 44.49 41.95 41.22 39.53 36.01
49.41 50.45 51.33 51.84 52.25 52.59 51.64 47.30 51.72 52.29 51.49 44.87 38.42 49.35 46.86 47.35 48.20 48.53 48.23 48.38 46.75 45.08 42.29 40.55 41.86 43.35 41.04 37.01 35.39 42.64 45.57 46.54 46.48 43.85 46.93 46.67 47.21 42.12 42.17 42.10 41.31 39.47 38.37 37.54
49.35 50.06 50.63 51.41 52.00 51.60 47.23 45.76 47.96 49.25 51.94 44.53 39.64 42.20 45.00 44.93 46.32 45.96 45.18 46.45 44.56 43.65 41.61 39.58 40.48 40.38 41.34 38.42 34.91 41.96 44.61 45.57 46.22 46.98 46.05 43.00 44.82 40.90 38.76 37.72 36.79 36.47 34.61 33.60
49.57 50.26 51.31 51.53 50.34 48.20 46.22 45.45 47.35 49.82 46.62 45.22 35.64 38.85 40.46 43.97 41.27 41.78 45.54 43.32 43.31 42.32 41.51 41.81 39.68 40.53 39.75 33.96 40.38 42.77 44.21 44.96 44.85 45.35 45.50 39.63 37.49 36.38 34.71 33.78 32.77 30.80 29.59 29.73
50.65 50.00 49.07 48.31 45.40 44.16 43.43 45.95 46.90 47.25 45.58 39.07 36.44 35.25 34.79 42.55 41.01 42.44 42.64 43.47 37.93 43.12 39.08 38.84 40.00 37.60 33.08 38.03 40.47 41.90 43.25 42.76 42.81 37.80 36.85 35.88 34.94 33.03 30.95 29.85 29.37 28.82 28.39 28.35
49.18 48.53 44.64 40.65 41.86 44.65 44.56 44.44 41.96 39.02 39.87 38.19 36.02 40.97 37.47 41.53 41.01 39.26 39.46 38.89 35.20 32.18 36.48 39.73 34.62 34.28 40.54 41.79 43.21 44.00 44.09 41.00 40.21 33.88 32.36 32.58 31.78 30.64 29.90 30.03 29.43 28.98 28.51 28.26
45.94 43.32 39.33 41.46 43.87 43.07 40.86 36.10 36.72 37.38 34.16 36.83 36.40 37.27 35.04 40.09 36.80 37.03 38.72 34.05 34.32 30.00 34.01 33.45 32.11 31.31 37.17 41.58 41.01 38.12 37.32 38.30 39.50 40.09 38.89 36.21 34.33 32.41 31.07 28.46 28.97 28.76 28.23 27.41
45.25 42.48 42.25 41.70 38.95 36.15 33.96 33.34 33.10 31.64 33.36 35.60 34.28 34.90 37.51 37.48 39.60 36.59 33.87 32.71 32.93 28.18 33.62 30.00 26.86 34.57 37.58 35.68 35.94 35.74 36.84 37.62 36.85 36.10 34.56 32.45 34.41 32.48 29.59 29.13 28.34 28.00 28.27 28.19
43.88 40.45 35.23 36.32 34.35 30.91 29.50 27.86 30.09 31.12 33.79 32.63 33.50 32.49 35.78 35.82 36.98 35.29 33.47 30.55 29.48 33.32 27.65 26.25 31.06 35.72 35.56 35.57 34.28 33.76 34.79 34.54 32.29 30.57 29.12 29.13 29.20 29.66 28.86 27.81 28.45 28.43 27.87 28.18
38.86 34.57 30.71 30.80 29.10 30.15 33.47 33.77 34.65 33.39 33.25 32.76 34.95 33.27 33.09 34.68 32.77 33.91 29.25 32.60 31.00 26.12 23.22 25.31 34.95 36.30 34.90 33.60 33.75 33.52 32.23 30.79 29.66 29.29 28.86 28.38 27.78 27.81 28.50 28.13 28.88 28.04 26.79 27.11
35.10 34.39 29.76 31.17 34.64 34.46 30.74 30.01 31.53 30.92 35.40 35.31 33.65 33.21 33.52 30.62 30.44 31.22 31.34 27.11 24.34 26.51 26.61 33.34 35.99 34.96 32.90 32.45 32.55 33.33 33.73 32.68 30.73 29.96 28.95 28.44 28.43 27.69 27.70 28.51 28.41 27.60 26.48 25.72
34.88 33.31 31.80 31.00 31.88 32.30 28.90 29.49 32.23 33.41 35.48 35.23 35.67 31.05 29.21 28.95 29.98 28.34 26.58 25.69 23.87 29.41 33.02 36.81 35.91 32.88 32.48 32.40 32.82 33.37 34.06 33.70 31.62 30.11 29.38 29.15 28.41 27.80 27.76 28.35 26.99 26.26 25.36 23.88
33.49 32.31 36.07 35.34 34.57 36.46 34.26 32.99 33.74 35.69 34.48 32.18 32.73 28.13 27.57 31.39 27.18 26.11 29.59 26.59 32.32 35.12 35.48 35.78 33.75 31.82 32.16 32.59 32.95 32.94 33.25 32.84 31.77 29.95 29.17 28.54 28.39 27.75 25.56 24.18 26.02 25.71 24.89 24.40

GFSNW_sfc_wetblb_006.txt.gz
Wetbulb
55.43 54.81 54.88 55.05 55.90 55.03 54.40 52.71 47.79 57.13 58.50 49.74 49.73 44.79 48.32 48.07 48.57 50.88 48.63 48.64 47.67 45.70 46.31 44.69 43.82 43.54 45.57 49.20 49.36 45.19 45.72 43.66 37.80 39.45 42.31 44.18 40.81 39.96 40.36 34.26 32.74 34.20 31.04 32.49
55.55 54.87 55.24 54.89 55.38 54.85 49.70 49.82 49.71 57.76 57.14 44.05 44.08 47.13 45.84 47.41 47.63 47.25 48.08 46.76 48.69 48.88 45.45 42.79 45.59 45.05 48.96 49.59 47.52 44.69 46.61 42.65 36.82 36.63 39.51 42.08 40.47 41.80 41.17 40.49 39.34 35.07 30.34 33.10
55.38 55.12 54.89 54.69 55.10 54.70 51.55 49.37 46.34 51.99 52.13 49.99 47.06 45.51 45.27 43.87 47.94 47.59 48.88 47.45 49.14 46.96 45.33 46.96 44.37 43.90 47.39 49.06 48.13 47.99 47.56 42.51 39.19 34.63 36.98 41.03 38.80 41.03 41.78 39.67 34.28 34.89 36.70 38.15
55.92 54.95 54.37 54.42 54.60 54.23 51.79 48.95 44.46 47.41 44.34 44.41 45.59 46.44 45.69 43.55 43.60 47.68 48.53 46.70 46.65 45.67 42.56 43.50 42.72 44.55 45.15 47.02 47.27 46.70 46.11 39.67 40.23 41.01 41.77 40.66 40.30 40.22 40.69 39.00 40.12 34.99 38.90 39.42
56.12 54.92 54.15 53.99 54.06 53.18 51.73 46.57 45.53 46.50 45.23 45.84 44.21 43.33 43.04 42.78 43.34 44.06 44.36 44.91 46.58 46.57 42.81 44.13 42.67 44.71 43.88 43.18 44.03 43.46 43.80 37.74 37.97 35.97 40.17 38.58 36.95 39.10 39.26 39.90 40.55 40.26 40.65 39.89
56.32 55.53 54.14 53.93 53.80 52.27 50.52 50.46 50.01 47.24 42.53 43.84 42.16 41.89 42.10 42.96 44.44 44.62 46.16 46.48 45.90 43.83 42.23 43.50 44.05 45.35 46.38 45.33 42.67 41.72 40.57 37.45 34.88 30.83 36.93 36.34 33.04 37.71 38.70 39.34 40.60 39.71 36.13 41.21
56.01 55.63 55.02 54.37 53.76 52.14 52.11 50.56 49.81 46.43 40.72 42.58 43.08 44.27 44.66 43.49 43.01 41.97 44.18 45.25 43.64 43.69 45.52 44.57 42.46 40.94 41.36 41.49 40.88 43.29 39.21 37.75 36.21 31.33 33.62 24.98 38.26 42.83 42.87 40.73 42.05 42.29 42.63 43.43
55.66 55.55 55.44 54.50 54.05 53.31 52.19 52.13 49.10 45.32 40.72 43.40 42.96 43.34 43.29 43.33 42.63 41.80 43.09 42.23 42.65 44.79 42.07 38.84 37.63 35.69 36.79 38.74 40.93 40.17 39.38 37.10 32.93 30.45 31.09 35.82 39.61 42.27 40.51 37.98 38.81 43.44 42.16 43.46
54.82 54.82 55.00 55.09 54.35 53.38 53.30 51.12 52.03 48.00 44.88 41.97 44.81 41.92 42.60 40.63 39.21 37.92 39.31 41.14 42.45 43.57 41.35 39.10 33.43 34.87 35.97 34.12 36.51 40.69 40.82 38.32 34.17 29.76 27.41 27.16 38.25 41.96 44.52 42.57 33.19 43.43 43.95 43.50
54.29 54.38 54.45 54.74 54.51 53.57 53.44 52.26 52.89 50.56 47.50 45.53 45.04 43.57 42.18 42.62 40.47 38.42 36.58 38.99 39.27 42.11 36.69 34.23 32.68 33.64 34.56 33.38 33.50 33.98 34.47 33.86 31.19 31.59 29.87 34.93 42.65 42.78 44.11 32.31 35.12 43.42 44.11 43.90
53.11 53.55 53.99 54.31 54.41 53.67 53.53 52.51 52.81 49.79 47.77 47.06 46.16 46.12 42.28 40.55 40.60 40.47 38.97 38.66 38.97 37.15 34.66 35.80 34.89 33.00 35.29 32.86 35.93 35.24 35.01 32.62 31.80 33.31 29.09 26.95 43.82 42.66 37.28 41.60 43.67 44.62 44.78 42.77
52.59 53.02 53.50 54.03 54.31 54.09 53.52 51.03 51.79 51.99 48.50 47.49 49.71 50.01 50.34 46.68 46.10 43.46 40.01 41.52 41.24 42.22 39.05 37.43 35.89 33.00 34.15 34.93 32.59 37.66 32.52 38.10 35.74 37.12 35.76 43.37 43.57 43.04 45.00 44.94 45.61 45.11 44.48 43.80
51.34 52.27 52.92 53.55 53.98 54.39 53.45 50.23 50.09 49.07 46.02 46.38 46.29 47.36 50.99 51.25 48.91 49.37 42.14 42.22 44.83 42.54 46.24 41.49 38.98 35.51 36.61 33.97 34.62 38.23 38.84 42.31 38.38 38.51 39.75 41.40 44.18 46.43 42.83 42.72 42.50 42.89 43.07 42.81
50.34 51.63 52.55 52.94 53.57 54.18 53.11 50.33 50.59 49.87 46.56 42.27 45.86 50.82 49.21 50.87 51.38 50.90 49.43 45.43 46.28 45.33 44.94 41.73 39.23 37.43 41.87 38.41 39.30 37.44 39.37 40.68 38.79 38.62 41.94 43.30 44.02 43.93 42.63 40.80 40.50 40.23 40.21 40.50
49.79 51.04 51.79 52.06 52.50 53.19 53.25 52.24 51.62 52.06 48.02 42.11 44.10 48.10 49.75 49.81 50.01 49.61 49.68 47.33 45.42 43.12 40.31 39.52 37.74 40.83 39.60 39.95 39.06 37.25 40.66 39.03 36.44 36.01 40.96 41.14 41.50 43.10 40.61 40.04 40.11 39.52 37.71 35.37
49.14 50.64 51.33 51.64 52.04 52.43 50.58 45.80 50.81 51.92 50.98 44.52 37.00 47.85 44.92 45.77 46.75 47.73 48.00 47.26 44.94 44.05 41.45 39.97 41.20 42.78 40.28 36.32 35.49 39.12 41.55 42.58 42.88 40.47 42.14 41.93 42.22 42.16 40.29 38.12 38.37 37.39 37.39 37.70
48.64 49.58 50.59 51.39 51.83 50.76 46.41 44.62 46.16 48.63 51.46 44.04 37.45 40.77 43.10 43.67 46.23 45.35 44.57 45.72 43.97 43.32 41.22 39.76 40.27 39.96 41.42 38.26 34.98 38.98 40.95 41.91 41.78 42.69 41.58 39.74 39.02 35.28 35.48 35.95 35.87 35.66 34.53 33.71
49.24 49.76 50.67 51.34 49.95 48.11 45.44 45.57 47.19 49.32 46.49 44.48 33.99 37.04 38.80 42.29 40.45 40.22 44.29 42.09 42.48 41.64 40.96 41.21 39.39 40.50 39.97 33.91 38.47 39.19 40.30 41.08 40.35 39.66 38.51 36.99 35.46 34.18 33.61 33.95 33.44 30.54 30.46 29.93
50.20 51.00 50.16 47.83 45.24 43.69 43.81 45.91 47.15 47.46 45.10 37.56 35.66 34.16 33.81 40.77 40.34 41.33 40.99 41.99 36.33 42.08 38.34 38.92 39.55 37.25 33.03 36.79 37.96 38.24 39.37 38.08 37.65 34.08 33.17 33.83 33.51 33.50 32.10 30.87 31.00 30.31 29.05 28.12
49.68 47.76 44.57 38.96 41.65 44.59 44.74 44.11 41.44 39.25 39.83 38.62 35.72 39.88 36.21 39.51 39.69 36.81 35.84 37.18 34.22 31.89 35.17 38.73 34.19 34.35 38.60 39.29 39.93 39.18 38.69 35.70 35.86 33.78 32.84 32.85 32.65 32.09 30.55 29.91 29.41 28.63 26.87 26.85
45.60 41.57 37.52 41.65 43.99 42.44 40.29 34.90 35.59 36.70 33.92 37.03 36.28 36.71 35.57 39.26 35.25 35.23 35.81 33.36 33.51 28.35 32.33 32.35 31.01 29.48 33.97 37.72 37.38 35.76 34.34 34.68 35.10 35.92 34.53 33.95 32.78 31.21 31.16 30.78 29.34 27.28 26.05 24.37
44.42 41.24 42.36 41.45 38.47 35.85 33.03 32.06 32.43 32.41 32.46 35.29 34.16 34.56 37.18 36.38 38.51 35.49 34.25 32.34 32.19 27.15 31.75 28.75 26.49 29.93 35.21 33.89 32.64 32.78 33.29 34.13 34.55 33.35 32.70 31.51 33.14 34.07 32.83 29.02 26.36 25.44 24.93 25.12
43.33 38.41 34.46 34.34 33.47 28.88 26.13 25.32 29.52 30.85 32.46 31.99 33.34 32.51 35.10 35.73 37.05 34.21 33.12 30.54 28.76 30.50 26.78 25.64 27.10 31.51 32.10 31.84 31.91 31.34 31.35 32.59 30.59 29.00 28.62 29.84 31.16 29.60 26.66 24.73 25.39 25.07 24.16 24.57
36.39 33.35 28.45 28.59 26.12 27.77 29.80 31.15 31.95 31.59 32.01 32.28 34.37 32.95 32.95 33.61 32.65 33.15 29.06 31.82 28.51 25.08 22.78 22.00 28.61 31.20 31.83 30.56 30.70 30.89 28.62 29.69 27.99 26.86 25.48 24.64 24.75 24.14 24.99 24.72 24.79 23.93 22.94 23.07
33.79 33.47 26.11 28.84 30.54 31.38 28.54 30.22 30.47 30.68 33.44 33.11 32.56 31.89 31.87 30.22 30.19 30.11 30.35 27.20 23.50 25.30 22.74 26.70 27.88 29.28 28.97 28.25 28.94 29.83 29.94 29.23 26.71 25.84 24.61 24.13 24.07 23.42 23.39 24.12 24.31 23.71 22.74 22.19
33.88 32.71 31.41 28.57 29.34 30.11 26.36 28.51 30.57 31.76 33.96 32.24 32.00 29.72 28.01 27.73 28.26 27.69 25.67 25.21 21.36 24.97 26.80 28.54 26.75 28.60 28.03 27.47 28.45 29.37 30.63 30.11 28.29 25.35 25.00 24.64 23.58 22.95 23.17 24.04 23.32 22.65 21.85 19.33
32.25 31.66 32.99 29.92 28.34 31.27 30.16 30.80 31.48 34.31 31.93 26.55 30.65 26.94 22.86 25.63 26.10 25.07 25.94 23.66 27.89 30.40 27.34 27.50 26.83 25.35 25.54 27.10 28.46 29.04 29.22 29.08 28.66 25.87 24.74 24.49 24.85 23.57 21.53 19.28 19.47 19.27 21.99 19.58

GFSNW_sfc_wetblb_009.txt.gz
Wetbulb
56.18 55.80 55.25 55.18 55.17 55.16 50.76 46.58 41.87 52.23 55.75 46.20 43.87 41.18 45.57 47.40 47.37 49.58 48.31 48.62 46.63 44.17 44.79 42.56 42.02 41.79 44.12 47.98 47.04 42.90 44.43 39.75 35.22 37.41 40.62 42.33 39.32 38.62 37.39 32.25 31.46 31.21 28.93 31.57
56.17 55.59 55.27 54.91 54.78 54.58 45.78 42.98 44.28 54.45 52.81 39.96 39.64 43.19 44.83 45.59 45.76 46.37 46.99 46.29 48.04 47.48 44.55 41.87 43.56 43.22 47.51 48.59 46.49 43.62 44.97 40.49 34.62 35.72 38.87 40.40 38.74 39.64 39.01 38.17 36.55 32.94 29.35 31.89
56.15 55.68 54.99 54.51 54.67 54.64 47.17 43.14 40.72 46.01 45.30 44.64 42.49 42.64 43.72 42.77 46.63 46.29 47.51 46.44 47.57 46.08 43.91 45.68 42.81 42.55 46.72 47.77 46.99 47.74 47.09 41.41 37.68 33.35 34.96 38.97 37.39 39.52 40.31 38.11 32.59 32.67 34.42 35.48
56.41 55.85 54.81 54.25 54.16 54.02 47.81 42.01 39.10 42.79 38.69 40.25 41.18 41.77 42.38 41.42 42.36 46.02 46.80 45.01 45.71 44.47 41.40 41.80 41.26 43.38 44.53 45.94 46.82 45.08 44.06 37.53 38.30 39.08 40.43 39.87 39.42 39.42 39.70 38.09 37.84 34.59 36.56 37.68
56.57 55.64 54.86 54.26 53.89 53.11 45.30 41.31 39.55 41.63 39.76 41.65 39.96 39.91 38.86 40.08 40.99 42.73 43.87 43.39 43.22 42.58 39.14 42.11 41.38 43.09 42.62 42.31 43.55 42.60 42.26 36.85 37.20 34.93 38.60 37.68 36.50 38.15 37.84 38.78 39.66 37.72 38.14 38.65
56.42 55.63 54.93 54.26 53.85 51.40 43.42 44.35 44.60 41.40 40.09 38.77 37.51 37.83 38.94 40.94 41.90 43.37 44.50 44.12 42.79 40.33 40.01 41.55 41.47 42.70 43.40 43.69 41.84 39.90 39.01 35.86 33.16 29.31 35.33 35.31 33.05 36.56 36.82 36.38 37.48 37.71 34.18 39.23
55.83 55.54 55.13 54.76 54.05 51.58 46.25 45.31 44.38 39.47 36.35 38.12 39.20 41.36 41.66 40.56 40.93 40.37 41.74 42.41 40.94 41.90 43.97 42.06 41.45 40.26 40.05 40.16 38.76 40.79 37.80 35.77 34.17 28.83 31.78 25.18 36.55 40.60 41.40 38.70 40.14 39.93 39.80 40.65
55.34 55.23 55.18 55.08 54.43 53.79 46.86 46.75 43.57 39.82 35.28 38.61 39.72 40.85 39.69 39.39 38.46 38.66 39.34 39.41 40.09 41.48 39.43 36.81 34.49 33.94 35.51 37.11 39.10 38.73 37.24 35.20 31.01 29.07 28.72 33.35 37.85 38.92 38.62 37.24 37.48 40.00 39.38 40.96
54.50 54.48 54.70 54.95 54.44 53.72 49.14 46.90 47.63 43.27 38.48 37.42 41.12 38.55 38.44 35.67 33.77 34.84 36.85 38.79 40.23 40.17 38.22 36.44 30.51 29.10 33.37 31.78 34.95 39.60 37.93 35.82 32.44 25.69 24.49 24.73 35.85 39.38 42.06 40.67 32.61 42.40 42.27 41.15
53.88 54.05 54.15 54.53 54.41 53.54 51.47 48.67 49.23 46.14 40.60 41.44 41.84 38.69 37.98 38.97 36.46 33.47 34.04 35.06 36.74 39.78 36.55 35.02 32.07 32.07 33.17 31.14 31.31 31.68 31.68 31.41 28.76 28.91 27.61 31.81 39.38 41.48 41.92 31.39 32.74 42.64 43.58 42.24
52.92 53.34 53.69 54.10 54.30 53.37 52.33 50.28 49.99 46.93 43.66 43.28 43.91 43.27 38.73 37.56 38.27 35.69 36.66 38.07 38.30 37.70 35.68 33.55 31.95 31.66 33.09 31.38 33.98 33.97 32.62 28.47 29.38 30.07 26.38 25.48 41.17 40.43 35.76 38.48 40.72 43.14 44.17 44.43
52.42 52.89 53.41 53.84 54.27 53.72 53.22 48.41 49.65 49.55 46.45 45.17 47.29 47.75 47.93 43.67 43.36 39.55 37.65 39.79 38.91 39.63 35.31 34.48 33.15 31.33 31.18 31.40 30.42 35.37 31.86 36.13 34.41 34.03 33.14 40.27 41.44 40.67 41.22 41.75 40.66 39.59 39.35 40.80
51.50 52.13 52.80 53.52 54.05 54.07 53.23 49.88 49.32 47.60 45.56 44.80 44.52 45.37 49.05 50.31 48.29 48.07 39.85 40.80 42.65 40.62 44.19 40.38 38.59 36.13 35.17 31.01 31.90 33.00 35.96 39.51 35.55 36.61 38.17 38.64 40.60 39.79 40.89 41.14 40.09 40.35 40.46 41.15
50.61 51.73 52.59 53.06 53.59 53.95 52.78 49.71 50.17 49.47 46.21 41.81 44.86 49.27 46.34 49.83 50.31 48.38 48.22 44.91 45.48 45.09 44.31 40.17 38.37 37.64 40.83 36.44 36.26 34.95 37.31 37.59 36.67 36.32 39.66 39.80 40.08 40.05 39.72 39.38 39.30 38.73 37.55 37.15
50.99 51.70 52.07 52.32 52.68 53.54 52.81 51.48 50.66 51.76 47.27 41.91 42.26 46.81 47.48 48.27 49.69 49.17 47.63 46.43 44.50 41.98 39.69 38.93 35.69 39.64 39.75 39.60 36.10 33.05 38.25 37.27 34.79 33.73 39.12 37.98 38.51 40.67 39.64 38.87 38.72 38.67 36.41 34.54
49.66 50.88 51.49 51.73 52.05 52.79 50.40 45.59 48.63 51.41 50.76 44.25 35.28 45.94 43.77 45.86 47.33 47.64 46.89 46.18 44.45 43.55 40.89 38.45 40.65 42.37 40.38 34.52 34.42 37.53 39.05 40.55 41.46 38.76 39.22 39.62 39.88 37.90 37.25 36.58 35.99 36.08 35.28 35.41
49.23 50.05 50.84 51.25 51.83 49.36 46.17 44.36 46.30 48.64 51.14 43.62 36.87 38.97 42.36 43.91 45.68 44.77 44.57 45.20 43.83 42.92 41.17 39.71 39.79 39.61 41.05 37.78 32.62 37.23 39.34 39.35 39.40 38.65 39.02 36.74 35.99 35.29 34.22 35.16 35.31 35.35 35.16 35.41
49.22 49.86 50.54 51.04 49.45 48.04 45.29 45.42 47.29 49.24 46.50 44.43 33.50 35.69 38.55 42.65 40.72 40.41 44.13 42.06 42.37 41.70 40.62 40.60 39.34 39.96 39.68 34.50 36.59 37.55 38.39 38.72 37.97 36.16 36.67 36.96 34.21 33.33 34.42 34.49 34.16 30.23 28.93 29.54
49.40 50.51 50.34 47.16 44.74 42.69 43.10 46.05 47.07 47.40 44.96 36.80 35.24 33.60 33.31 41.19 40.42 41.14 40.78 41.89 35.79 41.64 38.48 38.70 39.53 37.32 33.46 36.01 36.90 38.26 38.16 37.51 37.26 33.71 33.50 32.62 32.02 33.54 33.01 31.84 30.97 27.68 28.75 29.18
50.27 47.13 43.55 37.94 41.21 44.83 45.29 42.41 40.33 39.12 39.90 38.65 36.19 39.10 34.32 39.11 39.17 36.74 36.25 36.49 33.89 31.82 35.23 38.48 34.38 34.83 38.14 38.38 39.00 38.55 37.59 36.71 34.99 30.79 29.06 32.30 32.60 33.05 32.84 28.78 31.85 32.14 30.89 28.84
45.05 39.99 36.69 41.20 44.05 41.68 38.49 34.45 34.62 36.40 33.80 36.89 36.71 36.64 33.89 37.55 35.04 33.60 36.34 32.61 33.19 28.35 31.17 32.50 30.35 28.68 32.40 36.50 35.69 33.75 31.74 33.65 33.66 33.26 32.38 33.29 33.01 32.42 33.79 31.81 31.91 30.26 25.97 23.86
43.77 40.42 41.44 40.82 36.81 34.60 31.55 30.99 32.26 32.48 30.96 34.87 34.18 34.54 36.91 35.63 36.72 34.25 34.17 31.64 31.35 25.52 33.07 29.32 25.67 28.90 33.90 33.23 31.21 30.89 32.60 32.81 33.18 32.49 32.01 31.48 32.05 31.97 31.34 30.43 26.88 24.94 24.55 24.00
42.28 37.10 34.02 31.55 32.60 27.37 25.98 24.01 27.81 29.41 31.89 32.45 33.25 32.41 34.92 35.19 36.29 33.79 33.15 28.99 27.71 29.42 27.15 25.08 26.16 30.96 31.67 30.86 30.77 30.52 31.23 32.28 30.89 29.86 29.89 30.56 31.53 31.77 28.84 25.05 24.58 23.91 22.77 23.04
35.43 32.55 28.87 25.10 23.22 24.80 23.03 24.01 26.06 29.40 29.59 31.12 33.27 31.14 32.59 31.38 32.94 31.83 27.53 31.62 27.94 23.62 22.44 21.16 27.40 29.86 30.90 30.35 30.10 29.94 28.68 29.09 28.25 27.09 26.07 24.29 24.45 23.83 23.83 23.93 23.15 22.44 21.80 22.64
33.21 31.74 21.83 24.07 25.98 27.23 21.49 23.35 25.53 26.48 29.13 30.90 29.00 31.38 30.30 30.11 29.26 30.06 27.93 24.76 23.00 23.06 21.50 25.61 26.76 28.22 28.66 27.68 28.11 28.68 28.42 28.73 28.28 26.21 24.58 23.29 23.22 22.53 22.08 22.71 22.59 22.18 22.21 21.82
33.16 31.26 28.63 29.82 28.73 27.92 23.57 24.57 22.92 28.31 28.02 26.47 27.21 29.00 27.36 26.81 28.48 26.63 25.57 24.57 20.16 22.78 24.80 25.02 21.51 27.58 27.79 26.81 27.04 27.66 28.33 28.06 28.15 26.36 24.38 23.64 22.39 21.75 21.46 22.20 21.76 21.76 21.53 18.66
31.81 30.67 28.99 24.40 27.91 28.06 26.96 27.52 26.66 31.10 27.85 22.73 26.17 21.91 20.09 23.64 25.23 21.81 23.13 21.97 24.84 24.84 24.59 23.83 24.46 25.91 27.72 27.07 26.63 26.96 27.78 27.84 27.67 26.55 24.24 23.12 23.51 22.36 21.10 19.81 18.55 17.46 20.93 18.78